Missouri Water Science Center

[an error occurred while processing this directive]

USGS—Missouri Water Science Center Flood Event: October 30—November 2, 2009

Disclaimer: USGS data on this page have not received Director's approval and as such are provisional and subject to revision. The data are released on the condition that neither the USGS nor the United States Government may be held liable for any damages resulting from its use.

 

Date Time Station Number/Name GH in GH out Discharge Comments
11/2/2009 1100 06933500/Gasconade River at Jerome, MO 17.36 17.40 34,800 Crew: AG; unadjusted discharge
11/2/2009 1045 07016500/Bourbeuse River at Union, MO 19.70 19.2 15,800 Crew: RA/BB; unadjusted Q
11/2/2009 845 06934000/Gasconade River near Rich Fountain, MO 20.65 39,500 Crew: RA/BB; unadjusted Q
10/30/2009 1814 07065495/Jacks Fork at Alley Spring, MO 11.78 12,400 Crew: LB/RA
10/30/2009 1725 07018100/Big River near Richwoods, MO 23.78 29,000 Crew: HE/SW; unadjusted Q
10/30/2009 1715 07036100/St. Francis River near Saco, MO 24.97 25.23 50,000 Crew: SES/KB; unadjusted Q
10/30/2009 1610 07071500/Eleven Point River near Bardley, MO 16.56 26,800 Crew: LB/RA
10/30/2009 1525 07018500/Big River at Byrnesville, MO 19.58 13,800 Crew: HE/SW; unadjusted Q
10/30/2009 1520 07037300/Big Creek at Sam A Baker State Park, MO 13.85 13.35 20,300 Crew: CJR/MJK; unadjusted Q
10/30/2009 1500 07061300/East Fork Black River at Lesterville, MO 8.04 8.6 9,200 Crew: SS/KB; turbulent flow making GH's bounce; unadjusted Q
10/30/2009 1418 07066000/Jacks Fork at Eminence, MO 11.52 11.70 11,900 Crew: LB/RA
10/30/2009 1345 07019000/Meramec River near Eureka, MO 18.08 18.8 33,700 Crew: HW/SW; unadjusted Q
10/30/2009 1333 07065495/Jacks Fork at Alley Spring, MO 11.00 11.00 9,850 Crew: LB/RA
10/30/2009 1312 07061600/Black River below Annapolis, MO 15.48 15.51 40,400 Crew: CJR/MJK; unadjusted Q
10/30/2009 1300 07061290/E. Fk. Black R. bl Lower Taum Sauk Reservoir 11.92 7,870 Crew: SS/KB; measured above Dam
10/30/2009 1235 07065200/Jacks Fork near Mountain View, MO 9.7 5,990 Crew: LB/RA
10/30/2009 1155 07019090/Williams Creek near Peerless Park, MO 6.37 302 Crew: HE/SW; unadjusted Q
10/30/2009 1110 07061900/Logan Creek at Ellington, MO 12.39 12.48 12,400 Crew: CJR/MJK; unadjusted Q
10/30/2009 1015 07019195/Yarnell Creek at Fenton, MO 4.02 172 Crew: HE/SW; unadjusted Q
10/30/2009 1012 06928420/Roubidoux Creek at Polla Rd bl Ft. Leonard Wood 11.24 11.24 12,400 Crew: LB/RA
10/30/2009 900 06928300/Roubidoux Creek above Ft. Leonard Wood, MO 18.16 18.16 17,000 Crew: LB/RA
10/30/2009 827 06928300/Roubidoux Creek above Ft. Leonard Wood, MO 18.23 18.23 16,500 Crew: LB/RA

 

Other Flooding and Weather Conditions for Missouri

 


Download free viewers as needed:   acrobat Acrobat Reader   excel Excel Viewer   powerpoint Powerpoint Viewer    acrobat Word Viewer


Accessibility FOIA Privacy Policies and Notices

USA.gov logo U.S. Department of the Interior | U.S. Geological Survey
URL: https://mo.water.usgs.gov/flood/flooddata/events/oct_30_09.html
Page Contact Information: Webmaster
Page Last Modified: Tuesday, 09-Jul-2013 09:33:27 EDT